Tracking 23588 objects as of 6-Aug-2021
HD Live streaming from Space Station
objects crossing your sky now

CAPE 1

Track CAPE 1 now!
10-day predictions
CAPE 1 is classified as:


NORAD ID: 31130
Int'l Code: 2007-012P
Perigee: 643.5 km
Apogee: 778.5 km
Inclination: 98.2 °
Period: 98.9 minutes
Semi major axis: 7081 km
RCS: 0.0406 m2 (small)
Launch date: April 17, 2007
Source: United States (US)
Launch site: TYURATAM MISSILE AND SPACE COMPLEX (TTMTR)

Uplink (MHz):
Downlink (MHz): 435.245
Beacon (MHz):
Mode: 1200bps AFSK
Call sign: K5USL
Status: Active

aabbcc
Your satellite tracking list
Your tracking list is empty




NASA's NSSDC Master Catalog

Two Line Element Set (TLE):
1 31130U 07012P   21217.57757580  .00000111  00000-0  34049-4 0  9992
2 31130  98.2345 156.1100 0095328 191.3174 168.5882 14.56708155759100
Source of the keplerian elements: AFSPC